Flag for Norway Weather past 2 weeks in Langesund, Norway

Now
47 °F

Cool.


Feels Like: 45 °F
Forecast: 53 / 58 °F
Wind: 5 mph from Southeast

Location: Jomfruland Fyr

Current Time: Oct 23, 2014 at 2:05:00 AM

Latest Report: Oct 23, 2014 at 1:00 AM


Visibility: N/A

Pressure: 30.03 "Hg

Humidity: 94%

Dew point: 46 °F

Location of LangesundLocation

Historic Weather in Langesund — Graph

°F

Langesund temperature yesterday

Maximum temperature yesterday: 52 °F (at 1:00 AM)
Minimum temperature yesterday: 46 °F (at 9:00 PM)
Average temperature yesterday: 49 °F

Past Weeks' High & Low Weather Summary

 TemperatureHumidityPressure
High60 °F (Oct 20, 3:00 PM)97% (Oct 19, 3:00 AM)30.06 "Hg (Oct 19, 3:00 AM)
Low38 °F (Oct 16, 9:00 PM)61% (Oct 12, 4:00 PM)29.32 "Hg (Oct 8, 12:00 AM)
Average50 °F87%29.72 "Hg
* Reported Midnight between Oct 7 and Oct 8 — Midnight between Oct 22 and Oct 23, Langesund, Weather by CustomWeather, © 2014

Note: Actual official high and low records may vary slightly from our data, if they occured in-between our weather recording intervals... More about our weather records

Advertising

Langesund weather history for previous 24 hours

 ConditionsComfort  
Time TempWeatherWind HumidityBarometerVisibility
12:00 AM
Oct 23
46 °FCool.5 mph94%30.03 "HgN/A
11:00 PM
Oct 22
46 °FCool.6 mph94%30.03 "HgN/A
10:00 PM47 °FCool.6 mph93%30.03 "HgN/A
9:00 PM46 °FCool.7 mph92%30.02 "HgN/A
8:00 PM46 °FCool.8 mph91%30.00 "HgN/A
7:00 PM46 °FCool.7 mph92%29.99 "HgN/A
6:00 PM47 °FCool.7 mph94%29.98 "HgN/A
5:00 PM47 °FCool.7 mph93%29.95 "HgN/A
4:00 PM47 °FCool.6 mph93%29.94 "HgN/A
3:00 PM47 °FCool.7 mph93%29.92 "HgN/A
2:00 PM47 °FCool.7 mph90%29.90 "HgN/A
1:00 PM47 °FCool.8 mph91%29.89 "HgN/A
12:00 PM49 °FCool.8 mph83%29.85 "HgN/A
11:00 AM50 °FCool.8 mph85%29.82 "HgN/A
10:00 AM50 °FCool.8 mph87%29.78 "HgN/A
9:00 AM50 °FCool.8 mph90%29.74 "HgN/A
8:00 AM51 °FCool.9 mph91%29.69 "HgN/A
7:00 AM51 °FCool.8 mph92%29.65 "HgN/A
6:00 AM51 °FCool.7 mph91%29.62 "HgN/A
5:00 AM51 °FCool.8 mph92%29.59 "HgN/A
4:00 AM51 °FCool.8 mph90%29.57 "HgN/A
3:00 AM52 °FCool.8 mph90%29.54 "HgN/A
2:00 AM52 °FCool.7 mph89%29.50 "HgN/A
Weather by CustomWeather, © 2014

See weather overviewHow to use our weather pages